Location: 22
(39.7117°N, 89.5929°W)
Time: 04:37:46
(UTC-05:00)

Vanguard 1 Rocket - Pass Details

Date: 16 February 2023
Orbit: 652 x 4223 km, 34.3° (Epoch: 26 March)

Event Time Altitude Azimuth Distance (km) Brightness Sun altitude
Rises 12:56:01 0° 273° (W) 4,088 10.9 37.1°
Reaches altitude 10° 12:58:18 10° 268° (W) 3,408 10.6 37.0°
Maximum altitude 13:06:59 55° 193° (SSW) 2,378 11.3 36.5°
Drops below altitude 10° 13:23:56 10° 123° (ESE) 6,313 11.9 35.5°
Sets 13:30:02 0° 120° (ESE) 7,799 12.2 35.0°
